Regional Weather Roundup
Issued by NWS

Home | Current Version | Previous Version | Graphics & Text | Print | Product List | Glossary On
Versions: 1 2 3 4 5 6 7 8 9 10 11 12 13 14 15 16 17 18 19 20 21 22 23 24 25 26 27 28 29 30 31 32 33 34 35 36 37 38 39 40 41 42 43 44 45 46 47 48 49 50
000
ASUS43 KFSD 170102
RWRSD

WEATHER ROUNDUP FOR SOUTH DAKOTA
NATIONAL WEATHER SERVICE SIOUX FALLS SD
700 PM CST SAT DEC 16 2017

NOTE: "FAIR" INDICATES FEW OR NO CLOUDS BELOW 12,000 FEET WITH NO
SIGNIFICANT WEATHER AND/OR OBSTRUCTIONS TO VISIBILITY.


SDZ001>005-009-010-012>017-170200-
NORTHWEST AND NORTH CENTRAL SOUTH DAKOTA

CITY           SKY/WX    TMP DP  RH WIND       PRES   REMARKS
BUFFALO          N/A     31  24  75 NW8       29.95R WCI  23
FAITH            N/A     33  27  78 N6        30.02R WCI  28
MOBRIDGE       CLOUDY    34  28  79 CALM      30.00R
$$

SDZ012>016-024>037-041>051-057-063-072>074-170200-
SOUTHWEST AND SOUTH CENTRAL SOUTH DAKOTA

CITY           SKY/WX    TMP DP  RH WIND       PRES   REMARKS
RAPID CTY ARPT CLOUDY    34  25  69 N9        30.02R WCI  27
PIERRE         CLOUDY    34  31  88 N6        30.02R WCI  29
CUSTER         FLURRIES  25  21  85 NE8       29.92R WCI  16
ELLSWORTH AFB  CLOUDY    34  26  73 N7        30.01R WCI  28
PHILIP         CLOUDY    35  29  78 N7        30.03R WCI  29
PINE RIDGE     CLOUDY    33  27  78 N7        29.99R WCI  27
SPEARFISH      MOCLDY    30  27  86 CALM      30.01R
WINNER         CLOUDY    39  33  79 N8        30.01R
$$

SDZ004>011-016>023-039-040-170200-
NORTHEAST SOUTH DAKOTA

CITY           SKY/WX    TMP DP  RH WIND       PRES   REMARKS
ABERDEEN       CLOUDY    32  28  85 CALM      30.03R
WATERTOWN      MOCLDY    32  31  96 NE3       29.98R
BROOKINGS      CLOUDY    34  31  88 CALM      30.00R
SISSETON         N/A     32  30  92 CALM      30.02R
$$

SDZ017-020-022-023-036>040-048>070-170200-
SOUTHEAST SOUTH DAKOTA

CITY           SKY/WX    TMP DP  RH WIND       PRES   REMARKS
SIOUX FALLS    PTCLDY    32  29  88 NE5       30.00R WCI  27
HURON          CLOUDY    37  33  85 NE3       30.02R
CHAMBERLAIN    CLOUDY    38  34  85 N5        30.02R
MITCHELL       PTCLDY    36  33  89 NE8       30.02R
YANKTON        CLOUDY    36  31  82 MISG      30.01R
$$

ABBREVIATIONS USED IN REMARKS
   TC - TEMPERATURE IN CELSIUS
  WCI - WIND CHILL INDEX
   HX - HEAT INDEX
  VSB - VISIBILITY





USA.gov is the U.S. government's official web portal to all federal, state and local government web resources and services.